Weather in Dashoguz

Turkmenistan     41°50′13″N   59°58′40″E
temp.,
°C
wind,
m/s
gust,
m/s
humid.,
%
clouds,
%
prec.,
mm/h
press.,
hPa
HPBL,
m
15 august, mon
mon1523:00+30nne512230 0.0 1007254
02:00+27n47280 0.0 100799
05:00+25n46310 0.0 100783
08:00+28n57260 0.0 1008204
11:00+36nne45140 0.0 10081654
14:00+39ne56120 0.0 10073317
17:00+39ne67120 0.0 10063727
20:00+34n59165 0.0 1006163
16 august, tue
tue1623:00+30nne47210 0.0 1008105
02:00+29ne49230 0.0 1008185
05:00+27ne411270 0.0 1009219
08:00+29ne610250 0.0 1011367
11:00+35ne68170 0.0 10112041
14:00+37ne89120 0.0 10102667
17:00+36ne1010100 0.0 10102762
20:00+32nne813110 0.0 1011456
17 august, wed
wed1723:00+27nne513140 0.0 1012301
02:00+24nne514180 0.0 1012324
05:00+24nne614200 0.0 1012370
08:00+25ne814200 0.0 1013512
11:00+31ne910150 0.0 10131388
14:00+34ne88100 0.0 10112172
17:00+34ne9990 0.0 10102341
20:00+29ne712120 0.0 1011325
18 august, thu
thu1823:00+26ne714150 0.0 1012392
02:00+23nne512190 0.0 1011284
05:00+22ne512210 0.0 1012257
08:00+24ne712200 0.0 1013445
11:00+31ne910130 0.0 10131673
14:00+33ne89110 0.0 10112197
17:00+34ne99100 0.0 10102458
20:00+29ne713140 0.0 1011385
19 august, fri
fri1923:00+27ne714180 0.0 1011425
02:00+25ne615240 0.0 1011419
05:00+23ne613250 0.0 1012349
08:00+25ene713260 0.0 1014510
11:00+30ene912180 0.0 10141789
14:00+32ene1112150 0.0 10132514
17:00+32ne1011170 0.0 10132749
20:00+28ne813210 0.0 1014580